Location: Helsinki
(60.1699°N, 24.9384°E)
Time: 15:59:04
(UTC+03:00)

A-11 Canister half - Visible Passes

Search period start: 29 September 2023 00:00
Search period end: 09 October 2023 00:00
Orbit: 1524 x 1684 km, 47.3° (Epoch: 27 September)

Date Brightness Start Highest point End Pass type
(mag) Time Alt. Az. Time Alt. Az. Time Alt. Az.
29 Sep 10.5 19:43:23 10° W 19:51:04 29° SSW 19:58:56 10° SSE visible
29 Sep 11.0 21:49:41 10° WSW 21:53:25 13° SW 21:57:11 10° SSW visible
30 Sep 10.5 19:21:41 10° W 19:29:25 29° SSW 19:37:20 10° SSE visible
30 Sep 11.0 21:27:44 10° WSW 21:31:49 13° SW 21:35:57 10° SSW visible
01 Oct 11.0 21:05:48 10° WSW 21:10:13 14° SW 21:14:41 10° SSW visible
02 Oct 11.0 20:43:55 10° WSW 20:48:37 15° SW 20:53:22 10° SSW visible
03 Oct 11.1 20:22:04 10° WSW 20:27:01 15° SW 20:32:03 10° SSW visible
04 Oct 11.1 20:00:14 10° WSW 20:05:25 16° SW 20:10:41 10° S visible
05 Oct 11.1 19:38:24 10° W 19:43:48 17° SW 19:49:17 10° S visible
06 Oct 11.1 19:16:36 10° W 19:22:12 17° SW 19:27:53 10° S visible
